This is the latest recevied weather packets stored in our database for station/object K5OLV. If no packets are shown the sender has not sent any weather packets the latest 10 day(s).
| Time | Temp. | Humidity | Pressure | Rain* | Wind** | Luminosity | Snow |
|---|---|---|---|---|---|---|---|
| 1788536762 | 30° C | 72% | 1017.1 hPa | 0 mm | - | 694 W/m² | - |
| 1788536457 | 30.56° C | 73% | 1017.1 hPa | 0 mm | - | 698 W/m² | - |
| 1788536156 | 30° C | 73% | 1017.1 hPa | 0 mm | - | 735 W/m² | - |
| 1788535853 | 29.44° C | 73% | 1016.9 hPa | 0 mm | - | 660 W/m² | - |
| 1788535548 | 29.44° C | 73% | 1016.9 hPa | 0 mm | - | 652 W/m² | - |
| 1788535243 | 29.44° C | 72% | 1017.1 hPa | 0 mm | - | 663 W/m² | - |
| 1788534938 | 29.44° C | 73% | 1016.8 hPa | 0 mm | - | 645 W/m² | - |
| 1788534638 | 28.89° C | 73% | 1017.2 hPa | 0 mm | - | 607 W/m² | - |
| 1788534332 | 28.33° C | 76% | 1017.1 hPa | 0 mm | - | 622 W/m² | - |
| 1788534027 | 28.89° C | 74% | 1017.1 hPa | 0 mm | - | 572 W/m² | - |
| 1788533751 | 28.89° C | 71% | 1016.7 hPa | 0 mm | - | 599 W/m² | - |
| 1788533422 | 28.89° C | 71% | 1016.7 hPa | 0 mm | - | 567 W/m² | - |
| 1788533118 | 28.89° C | 71% | 1016.6 hPa | 0 mm | - | 558 W/m² | - |
| 1788532814 | 28.89° C | 74% | 1016.8 hPa | 0 mm | - | 546 W/m² | - |
| 1788532509 | 28.33° C | 75% | 1016.7 hPa | 0 mm | - | 539 W/m² | - |
| 1788532206 | 28.33° C | 76% | 1016.8 hPa | 0 mm | - | 526 W/m² | - |
| 1788531902 | 27.78° C | 76% | 1016.5 hPa | 0 mm | - | 491 W/m² | - |
| 1788531602 | 27.78° C | 77% | 1016.6 hPa | 0 mm | - | 472 W/m² | - |
| 1788531296 | 28.33° C | 76% | 1016.3 hPa | 0 mm | - | 450 W/m² | - |
| 1788530993 | 28.89° C | 73% | 1016.2 hPa | 0 mm | - | 432 W/m² | - |
| 1788530693 | 28.89° C | 76% | 1016.5 hPa | 0 mm | - | 404 W/m² | - |
| 1788530392 | 30° C | 72% | 1016.6 hPa | 0 mm | - | 380 W/m² | - |
| 1788530086 | 29.44° C | 73% | 1016.6 hPa | 0 mm | - | 354 W/m² | - |
| 1788529783 | 29.44° C | 73% | 1016.3 hPa | 0 mm | - | 323 W/m² | - |
| 1788529483 | 29.44° C | 72% | 1016.5 hPa | 0 mm | - | 301 W/m² | - |
* Rain latest hour (hover to see other rain measurements)
** Current wind speed in m/s (hover to see current wind gust speed)